Location: Unspecified
(0.0000°N, 0.0000°E)
Time: 17:05:16
(UTC+00:00)

Vanguard 3 - Pass Details

Date: 05 February 2023
Orbit: 509 x 3249 km, 33.3° (Epoch: 20 March)

Event Time Altitude Azimuth Distance (km) Brightness Sun altitude
Rises 23:23:30 0° 320° (NW) 6,136 - -69.9°
Reaches altitude 10° 23:27:39 10° 328° (NNW) 5,440 - -70.5°
Maximum altitude 23:43:53 41° 33° (NNE) 4,120 - -72.6°
Drops below altitude 10° 00:01:24 10° 97° (E) 5,913 - -73.9°
Exits shadow 00:02:47 - 99° (E) 6,139 11.6 -74.0°
Sets 00:06:03 0° 104° (ESE) 6,700 11.9 -74.1°
